www.pogodaiklimat.ru

Погода и климат >> Архив погоды >> Австралия >> Южная Австралия >> Эрнабелла


ПОГОДА в Эрнабелле

  • Прогноз погоды в Эрнабелле
  • Монитор погоды в Эрнабелле

АРХИВ ПОГОДЫ в Эрнабелле

Время (UTC), дата Ветер
(напр.,м/с)
 
Видим.   Явления Облачность Т
(С)
Тd
(С)
f
(%)
Тe
(С)
Тes
(С)
Комфортность P
(гПа)
Po
(гПа)
Тmin
(С)
Tmax
(С)
R
(мм)
R24
(мм)
S
(см)
01 12.09 С 2 н/о н/о +22.6 -13.3 8 +20 +20 1026.7 946.3
02 12.09 С 3 н/о н/о +24.8 -15.2 6 +22 +22 комфорт 1026.0 945.7 +7.8
04 12.09 В 2 н/о н/о +27.3 -15.6 5 +23 +23 комфорт 1024.2 944.0
05 12.09 ЮВ 3 н/о н/о +28.9 -17.1 4 +25 +25 комфорт 1023.1 943.0
07 12.09 ЮВ 3 н/о н/о +28.3 -14.9 5 +24 +24 комфорт 1022.6 942.5
08 12.09 В 5 н/о н/о +27.9 -15.2 5 +24 +24 комфорт 1022.8 942.7
10 12.09 В 3 н/о н/о +21.6 -15.6 7 +20 +20 1024.0 943.8
11 12.09 СВ 2 н/о н/о +18.9 -16.0 8 +19 +19 1024.7 944.5
13 12.09 штиль 0 н/о н/о +16.4 -16.5 9 +17 +17 1024.8 944.6
14 12.09 штиль 0 н/о н/о +15.6 -15.9 10 +16 +16 1025.1 944.8 +29.7
16 12.09 ЮВ 2 н/о н/о +11.8 -16.6 12 +12 +12 1024.6 944.4
17 12.09 ЮВ 2 н/о н/о +12.2 -15.4 13 +12 +12 1024.4 944.2
19 12.09 штиль 0 н/о н/о +11.1 -15.4 14 +11 +11 1024.1 943.9
20 12.09 штиль 0 н/о н/о +10.6 -15.7 14 +11 +11 1024.6 944.4
22 12.09 В 2 н/о н/о +14.3 -14.7 12 +15 +15 1025.5 945.2
23 12.09 СВ 2 н/о н/о +21.6 -15.6 7 +20 +20 1026.1 945.8
01 13.09 СВ 3 н/о н/о +26.8 -18.6 4 +23 +23 комфорт 1025.8 945.5
02 13.09 СВ 4 н/о н/о +28.7 -14.6 5 +25 +25 комфорт 1025.3 945.0 +7.7
04 13.09 СВ 5 н/о н/о +30.3 -11.2 6 +26 +26 жарко 1023.4 943.3
05 13.09 В 6 н/о н/о +31.4 -8.5 7 +27 +27 жарко 1022.6 942.5
07 13.09 ЮВ 4 н/о н/о +30.9 -8.9 7 +27 +27 жарко 1022.0 942.0
08 13.09 В 4 н/о н/о +30.2 -9.4 7 +26 +26 жарко 1022.3 942.3
10 13.09 В 4 н/о н/о +24.6 -10.3 9 +22 +22 комфорт 1023.3 943.2
11 13.09 СВ 2 н/о н/о +21.8 -8.8 12 +20 +20 1024.1 943.9
13 13.09 В 2 н/о н/о +21.5 -10.2 11 +20 +20 1024.4 944.2
14 13.09 В 3 н/о н/о +16.0 -10.6 15 +16 +16 1024.3 944.1 +32.4
16 13.09 В 2 н/о н/о +16.1 -9.7 16 +16 +16 1024.2 944.0
17 13.09 штиль 0 н/о н/о +15.9 -9.9 16 +16 +16 1023.8 943.6
19 13.09 штиль 0 н/о н/о +12.7 -10.3 19 +13 +13 1023.5 943.4
20 13.09 штиль 0 н/о н/о +10.8 -11.2 20 +11 +11 1023.9 943.7
22 13.09 В 2 н/о н/о +12.9 -11.5 17 +13 +13 1024.9 944.7
23 13.09 штиль 0 н/о н/о +23.7 -14.1 7 +21 +21 комфорт 1025.6 945.3
01 14.09 СВ 5 н/о н/о +28.6 -12.4 6 +25 +25 комфорт 1025.3 945.0
02 14.09 СВ 4 н/о н/о +29.0 -10.2 7 +25 +25 комфорт 1024.5 944.3 +9.7
04 14.09 ЮВ 5 н/о н/о +30.1 -11.4 6 +26 +26 жарко 1022.6 942.5
05 14.09 СВ 6 н/о н/о +30.4 -11.2 6 +26 +26 жарко 1021.6 941.6
07 14.09 В 2 н/о н/о +31.1 -10.7 6 +27 +27 жарко 1020.6 940.7
08 14.09 В 5 н/о н/о +30.2 -9.4 7 +26 +26 жарко 1020.4 940.5
10 14.09 В 3 н/о н/о +24.2 -10.6 9 +22 +22 комфорт 1021.0 941.1
11 14.09 В 3 н/о н/о +22.4 -10.7 10 +20 +20 1021.5 941.5
13 14.09 В 3 н/о н/о +19.0 -10.0 13 +19 +19 1021.7 941.7
14 14.09 В 2 н/о н/о +16.1 -11.4 14 +16 +16 1021.5 941.5 +32.2
16 14.09 СВ 1 н/о н/о +20.0 -9.2 13 +21 +21 комфорт 1021.0 941.1
17 14.09 СВ 2 н/о н/о +19.2 -8.9 14 +19 +19 1020.5 940.6
19 14.09 СВ 3 н/о н/о +17.7 -8.4 16 +18 +18 1020.4 940.5
20 14.09 штиль 0 н/о н/о +17.4 -8.6 16 +17 +17 1020.8 940.9
22 14.09 штиль 0 н/о н/о +19.9 -8.4 14 +19 +19 1021.8 941.8
23 14.09 СВ 6 н/о н/о +24.2 -8.1 11 +22 +22 комфорт 1022.4 942.4
01 15.09 С 6 н/о н/о +27.7 -9.5 8 +24 +24 комфорт 1021.6 941.6
02 15.09 С 4 н/о н/о +28.7 -10.5 7 +25 +25 комфорт 1020.8 940.9 +15.7
04 15.09 СЗ 4 н/о н/о +30.3 -9.3 7 +26 +26 жарко 1019.0 939.2
05 15.09 СВ 3 н/о н/о +31.3 -8.6 7 +27 +27 жарко 1018.1 938.4
07 15.09 СВ 4 н/о н/о +31.0 -8.8 7 +27 +27 жарко 1017.3 937.7
08 15.09 С 4 н/о н/о +30.8 -8.9 7 +27 +27 жарко 1017.5 937.8
10 15.09 СВ 2 н/о н/о +24.8 -8.8 10 +22 +22 комфорт 1018.0 938.3
11 15.09 В 2 н/о н/о +21.2 -8.3 13 +20 +20 1018.5 938.8
13 15.09 С 1 н/о н/о +21.7 -7.9 13 +20 +20 1018.8 939.0
14 15.09 В 2 н/о н/о +21.7 -7.9 13 +20 +20 1018.3 938.6 +32.3
16 15.09 С 2 н/о н/о +19.8 -7.5 15 +20 +20 1017.9 938.2
17 15.09 штиль 0 н/о н/о +20.0 -8.3 14 +19 +19 1017.5 937.8
19 15.09 С 3 н/о н/о +18.0 -8.2 16 +18 +18 1017.2 937.6
20 15.09 СВ 1 н/о н/о +18.9 -8.3 15 +20 +20 1017.7 938.0
22 15.09 ЮЗ 3 н/о н/о +22.3 -9.5 11 +20 +20 1018.5 938.8
23 15.09 З 4 н/о н/о +24.8 -10.2 9 +22 +22 комфорт 1019.0 939.2
01 16.09 З 6 н/о н/о +29.0 -10.2 7 +25 +25 комфорт 1019.1 939.3
02 16.09 СЗ 6 н/о н/о +30.2 -9.4 7 +26 +26 жарко 1018.7 938.9 +15.5
04 16.09 ЮЗ 7 н/о н/о +31.7 -6.6 8 +28 +28 жарко 1017.6 937.9
05 16.09 Ю 8 н/о н/о +31.6 -2.4 11 +28 +28 жарко 1016.9 937.3
07 16.09 ЮЗ 8 н/о н/о +30.9 -4.2 10 +27 +27 жарко 1016.5 936.9
08 16.09 Ю 8 н/о н/о +28.8 +1.3 17 +27 +27 жарко 1016.9 937.3
10 16.09 Ю 8 н/о н/о +24.3 +4.6 28 +24 +24 комфорт 1018.2 938.5
11 16.09 ЮВ 6 н/о н/о +22.8 +4.8 31 +23 +23 комфорт 1019.7 939.9
13 16.09 ЮВ 7 н/о н/о +21.0 +6.5 39 +22 +22 комфорт 1020.6 940.7
14 16.09 ЮВ 6 н/о н/о +19.7 +6.8 43 +20 +20 1020.3 940.4 +32.7
16 16.09 ЮВ 7 н/о н/о +17.7 +6.6 48 +17 +17 1020.0 940.1
17 16.09 ЮВ 7 н/о н/о +16.9 +6.4 50 +16 +16 1019.5 939.7
19 16.09 В 5 н/о н/о +14.6 +5.1 53 +13 +13 1019.5 939.7
20 16.09 В 6 н/о н/о +13.7 +3.8 51 +12 +12 1020.3 940.4
22 16.09 В 5 н/о н/о +13.9 +2.2 45 +12 +12 1021.6 941.6
23 16.09 СВ 6 н/о н/о +15.3 +1.4 39 +14 +14 1022.2 942.2
01 17.09 СВ 6 н/о н/о +20.6 +3.3 32 +21 +21 комфорт 1022.1 942.1
02 17.09 СВ 6 н/о н/о +22.6 +3.2 28 +22 +22 комфорт 1021.3 941.3 +12.4
04 17.09 СВ 5 н/о н/о +26.5 +1.7 20 +25 +25 комфорт 1019.3 939.5
05 17.09 СВ 5 н/о н/о +28.3 +0.1 16 +26 +26 жарко 1018.3 938.6
07 17.09 СВ 5 н/о н/о +29.2 -4.3 11 +26 +26 жарко 1017.3 937.7
08 17.09 С 5 н/о н/о +28.8 -4.6 11 +26 +26 жарко 1017.6 937.9
10 17.09 СВ 4 н/о н/о +25.0 -0.9 18 +23 +23 комфорт 1019.1 939.3
11 17.09 СВ 4 н/о н/о +23.3 -0.2 21 +22 +22 комфорт 1019.8 940.0
13 17.09 СВ 6 н/о н/о +19.9 +1.4 29 +20 +20 1020.4 940.5
14 17.09 В 5 н/о н/о +18.9 +1.9 32 +19 +19 1020.2 940.3 +30.3
16 17.09 С 2 н/о н/о +17.6 +2.0 35 +18 +18 1020.0 940.1
17 17.09 В 4 н/о н/о +17.3 +1.7 35 +17 +17 1019.7 939.9
19 17.09 В 2 н/о н/о +15.7 +0.7 36 +16 +16 1019.4 939.6
20 17.09 С 5 н/о н/о +16.5 +1.0 35 +16 +16 1019.8 940.0
22 17.09 С 5 н/о н/о +15.8 +0.4 35 +15 +15 1020.8 940.9
23 17.09 С 5 н/о н/о +17.4 +0.1 31 +17 +17 1021.1 941.2
01 18.09 СВ 6 н/о н/о +22.8 +0.6 23 +22 +22 комфорт 1020.2 940.3
02 18.09 С 7 н/о н/о +25.5 -0.5 18 +24 +24 комфорт 1019.3 939.5 +15.1
04 18.09 СЗ 7 н/о н/о +30.4 -4.6 10 +27 +27 жарко 1017.5 937.8
05 18.09 С 7 н/о н/о +30.4 -4.6 10 +27 +27 жарко 1016.5 936.9
07 18.09 СЗ 5 н/о н/о +32.1 -8.0 7 +28 +28 жарко 1015.1 935.6
08 18.09 С 5 н/о н/о +31.1 -8.7 7 +27 +27 жарко 1015.2 935.7
10 18.09 С 3 н/о н/о +25.0 -10.0 9 +22 +22 комфорт 1015.4 935.9
11 18.09 С 3 н/о н/о +23.9 -9.5 10 +21 +21 комфорт 1015.9 936.4
13 18.09 С 5 н/о н/о +24.4 -6.8 12 +22 +22 комфорт 1016.7 937.1
14 18.09 С 4 н/о н/о +23.4 -5.6 14 +21 +21 комфорт 1016.6 937.0 +32.3
16 18.09 ЮВ 3 н/о н/о +21.2 -4.8 17 +20 +20 1015.9 936.4
17 18.09 СВ 3 н/о н/о +20.9 -4.3 18 +21 +21 комфорт 1015.3 935.8
19 18.09 В 4 н/о н/о +18.3 -3.8 22 +18 +18 1014.3 934.9
20 18.09 В 3 н/о н/о +17.2 -4.1 23 +17 +17 1014.3 934.9
22 18.09 С 2 н/о н/о +20.6 -5.3 17 +21 +21 комфорт 1014.9 935.4
23 18.09 СЗ 7 н/о н/о +24.7 -6.6 12 +22 +22 комфорт 1015.3 935.8
01 19.09 СЗ 9 н/о н/о +28.3 -6.2 10 +25 +25 комфорт 1014.6 935.2

 

Местоположение метеостанции Эрнабелла (Южная Австралия, Австралия): широта -26.27 долгота 132.18 высота над уровнем моря 704 м.

В архиве по умолчанию представлена погода в Эрнабелле за последнюю неделю. Архивные данные за месяц целиком и за предыдущие месяцы, начиная с января 2011 года, Вы можете получить, выбрав интересующий диапазон дат из раскрывающегося списка и нажав кнопку "Ввод!".


*Определитесь, кто Вы:
робот инопланетянин человек

Внимание! Время в таблицах - всемирное. Для получения местного времени необходимо прибавить поправку, которая равна 9.5 ч.

Смотрите также архив погоды в соседних городах и на ближайших метеорологических станциях:

Погода в Юларе (Северная территория, Австралия) (169 км)
Погода в Элис-Спрингсе (Северная территория, Австралия) (324 км)
Погода в Однадатте (Южная Австралия, Австралия) (354 км)
Погода в Кубер-Педи (Южная Австралия, Австралия) (395 км)
Погода в Джайлсе (Западная Австралия, Австралия) (413 км)
Погода в Кинторе (Северная территория, Австралия) (438 км)
Погода на Виноградной ферма (Северная территория, Австралия) (450 км)
Погода в Джервойсе (Северная территория, Австралия) (545 км)
Погода в Таркуле (Южная Австралия, Австралия) (548 км)
Погода в Уорбертоне (Западная Австралия, Австралия) (559 км)

Пояснения к столбцам:

Ветер - указаны скорость ветра в м/с - средняя за 10 мин, порывы в срок и между сроками (в фигурных скобках) и направление, откуда дует ветер: С - северный, СВ - северо-восточный, В - восточный, ЮВ - юго-восточный, Ю - южный, ЮЗ - юго-западный, З - западный, СЗ - северо-западный.
Видимость - горизонтальная дальность видимости в метрах или километрах. При видимости от 1 до 10 км при отсутствии осадков обычно наблюдается дымка, при ухудшении видимости до 1 км и менее - туман. В сухую погоду видимость может ухудшаться дымом, пылью или мглою.
Явления - указаны атмосферные явления, наблюдавшиеся в срок или в последний час перед сроком; фигурными скобками обозначены явления, наблюдавшиеся между сроками (за 1-3 часа до срока); квадратными скобками обозначены град или гололедные отложения с указанием их диаметра в мм.
Облачность - указаны через наклонную черту общая и нижняя облачность в баллах и высота нижней границы облаков в метрах; квадратными скобками обозначены формы облаков: Ci - перистые, Cs - перисто-слоистые, Cc - перисто-кучевые, Ac - высококучевые, As - высокослоистые, Sc - слоисто-кучевые, Ns - слоисто-дождевые, Cu - кучевые, Cb - кучево-дождевые. Подробнее классификацию облаков см. в Атласе облаков (PDF).
T - Температура воздуха - температура, измеренная на высоте 2 м над землей.
Td - Температура точки росы - температура, при понижении до которой содержащийся в воздухе водяной пар достигнет насыщения.
f - Относительная влажность воздуха - влажноcть воздуха, измеренная на высоте 2 м над землей.
Te - Эффективная температура - температура, которую ощущает одетый по сезону человек в тени. Характеристика душности погоды. При расчете учитывается влияние влажности воздуха и скорости ветра на теплоощущения человека.
Tes - Эффективная температура на солнце - температура, которую ощущает человек, с поправкой на солнечный нагрев. Характеристика знойности погоды. Зависит от высоты солнца над горизонтом, облачности и скорости ветра. Ночью, в пасмурную погоду, а также при ветре 12 м/с и более поправка равна нулю.
P - Атмосферное давление - приведенное к уровню моря атмосферное давление.
Po - Атмосферное давление - измеренное на уровне метеостанции атмосферное давление.
Tmin - Минимальная температура - минимум температуры воздуха на высоте 2 м над землей.
Tmax - Максимальная температура - максимум температуры воздуха на высоте 2 м над землей.
R - Количество осадков - Количество выпавших осадков за период времени, мм. При наведении курсора мыши на число - период времени, за который выпало указанное количество осадков.
R24 - Количество осадков - Количество выпавших осадков за 24 часа, мм.
S - Снежный покров - Высота снежного покрова, см. При наведении курсора мыши на число - состояние снежного покрова и степень покрытия местности в баллах.